When you browse on this site, cookies collect data to enhance your experience and personalize the content and advertising you see.
Visit our Privacy Policy to learn more. By continuing to use the site, you agree to this use of cookies and data.
  • In Czech Republic
  • List of Countries
  • For 7 days
  • Water Temperature
  • Satellite Maps
  • Weather Map
  • Weather Widgets
  • user-avatar
    Login

    Hourly Weather Staryy Dedin

    Today, 25 May, Saturday

    Time Temperature Precipitation Wind Pressure Humidity
    00:00 +15°C° 0.1 mm 4 mps 741 mmHg 96%
    01:00 +16°C° 0.1 mm 3 mps 741 mmHg 97%
    02:00 +14°C° 0.1 mm 3 mps 741 mmHg 98%
    03:00 +14°C° 0 mm 3 mps 741 mmHg 98%
    04:00 +14°C° 0 mm 3 mps 741 mmHg 97%
    05:00 +16°C° 0 mm 3 mps 741 mmHg 97%
    06:00 +16°C° 0.1 mm 3 mps 741 mmHg 95%
    07:00 +17°C° 0.1 mm 3 mps 741 mmHg 93%
    08:00 +17°C° 0.1 mm 2 mps 740 mmHg 91%
    09:00 +19°C° 0.4 mm 2 mps 740 mmHg 88%
    10:00 +20°C° 0.4 mm 3 mps 740 mmHg 84%
    11:00 +21°C° 0.4 mm 3 mps 740 mmHg 80%
    12:00 +21°C° 0.8 mm 2 mps 740 mmHg 75%
    13:00 +23°C° 0.8 mm 2 mps 739 mmHg 70%
    14:00 +23°C° 0.8 mm 1 mps 739 mmHg 65%
    15:00 +23°C° 0.6 mm 1 mps 739 mmHg 67%
    16:00 +23°C° 0.6 mm 1 mps 739 mmHg 69%
    17:00 +23°C° 0.6 mm 1 mps 739 mmHg 71%
    18:00 +21°C° 0.7 mm 2 mps 738 mmHg 77%
    19:00 +19°C° 0.7 mm 2 mps 738 mmHg 83%
    20:00 +17°C° 0.7 mm 2 mps 738 mmHg 89%
    21:00 +16°C° 0 mm 2 mps 738 mmHg 90%
    22:00 +16°C° 0 mm 2 mps 738 mmHg 92%
    23:00 +15°C° 0 mm 2 mps 739 mmHg 94%

    Tomorrow, 26 May, Sunday

    Time Temperature Precipitation Wind Pressure Humidity
    00:00 +13°C° 0 mm 3 mps 739 mmHg 94%
    01:00 +12°C° 0 mm 3 mps 739 mmHg 94%
    02:00 +12°C° 0 mm 3 mps 739 mmHg 94%
    03:00 +12°C° 0 mm 3 mps 739 mmHg 94%
    04:00 +12°C° 0 mm 3 mps 740 mmHg 94%
    05:00 +12°C° 0 mm 3 mps 740 mmHg 94%
    06:00 +13°C° 0 mm 3 mps 740 mmHg 89%
    07:00 +14°C° 0 mm 3 mps 740 mmHg 84%
    08:00 +17°C° 0 mm 3 mps 740 mmHg 79%
    09:00 +17°C° 0 mm 4 mps 741 mmHg 74%
    10:00 +18°C° 0 mm 4 mps 741 mmHg 68%
    11:00 +19°C° 0 mm 4 mps 741 mmHg 63%
    12:00 +19°C° 0 mm 4 mps 741 mmHg 62%
    13:00 +19°C° 0 mm 5 mps 740 mmHg 61%
    14:00 +20°C° 0 mm 5 mps 740 mmHg 59%
    15:00 +20°C° 0 mm 5 mps 740 mmHg 61%
    16:00 +19°C° 0 mm 4 mps 740 mmHg 63%
    17:00 +19°C° 0 mm 4 mps 740 mmHg 64%
    18:00 +18°C° 0 mm 4 mps 740 mmHg 69%
    19:00 +16°C° 0 mm 3 mps 741 mmHg 73%
    20:00 +14°C° 0 mm 3 mps 741 mmHg 78%
    21:00 +13°C° 0 mm 3 mps 741 mmHg 80%
    22:00 +12°C° 0 mm 3 mps 741 mmHg 83%
    23:00 +11°C° 0 mm 3 mps 742 mmHg 86%

    Day after tomorrow, 27 May, Monday

    Time Temperature Precipitation Wind Pressure Humidity
    00:00 +11°C° 0 mm 3 mps 742 mmHg 87%
    01:00 +11°C° 0 mm 3 mps 742 mmHg 88%
    02:00 +11°C° 0 mm 3 mps 742 mmHg 90%
    03:00 +11°C° 0 mm 3 mps 742 mmHg 90%
    04:00 +11°C° 0 mm 3 mps 743 mmHg 90%
    05:00 +11°C° 0 mm 3 mps 743 mmHg 91%
    06:00 +13°C° 0 mm 4 mps 743 mmHg 85%
    07:00 +14°C° 0 mm 4 mps 743 mmHg 79%
    08:00 +16°C° 0 mm 5 mps 744 mmHg 73%
    09:00 +17°C° 0 mm 5 mps 744 mmHg 70%
    10:00 +19°C° 0 mm 5 mps 744 mmHg 66%
    11:00 +20°C° 0 mm 5 mps 744 mmHg 63%
    12:00 +20°C° 0.2 mm 5 mps 744 mmHg 65%
    13:00 +21°C° 0.2 mm 5 mps 744 mmHg 67%
    14:00 +21°C° 0.2 mm 4 mps 744 mmHg 69%
    15:00 +21°C° 0.2 mm 4 mps 744 mmHg 70%
    16:00 +22°C° 0.2 mm 4 mps 744 mmHg 71%
    17:00 +22°C° 0.2 mm 3 mps 744 mmHg 72%
    18:00 +20°C° 0.2 mm 3 mps 744 mmHg 76%
    19:00 +19°C° 0.2 mm 3 mps 744 mmHg 80%
    20:00 +17°C° 0.2 mm 3 mps 744 mmHg 85%
    21:00 +17°C° 0 mm 3 mps 744 mmHg 87%
    22:00 +17°C° 0 mm 3 mps 744 mmHg 89%
    23:00 +16°C° 0 mm 3 mps 744 mmHg 92%

    28 May, Tuesday

    Time Temperature Precipitation Wind Pressure Humidity
    00:00 +16°C° 0 mm 3 mps 744 mmHg 93%
    01:00 +16°C° 0 mm 3 mps 744 mmHg 94%
    02:00 +14°C° 0 mm 3 mps 744 mmHg 95%
    03:00 +16°C° 0 mm 3 mps 744 mmHg 95%
    04:00 +16°C° 0 mm 3 mps 744 mmHg 95%
    05:00 +16°C° 0 mm 3 mps 744 mmHg 95%
    06:00 +18°C° 0 mm 3 mps 744 mmHg 92%
    07:00 +19°C° 0 mm 4 mps 745 mmHg 90%
    08:00 +20°C° 0 mm 4 mps 745 mmHg 87%
    09:00 +21°C° 0.3 mm 4 mps 745 mmHg 83%
    10:00 +22°C° 0.3 mm 4 mps 745 mmHg 79%
    11:00 +25°C° 0.3 mm 5 mps 744 mmHg 75%
    12:00 +25°C° 1.1 mm 5 mps 744 mmHg 75%
    13:00 +25°C° 1.1 mm 5 mps 744 mmHg 74%
    14:00 +26°C° 1.1 mm 5 mps 744 mmHg 74%
    15:00 +26°C° 0.2 mm 5 mps 744 mmHg 74%
    16:00 +25°C° 0.2 mm 5 mps 744 mmHg 73%
    17:00 +25°C° 0.2 mm 5 mps 744 mmHg 73%
    18:00 +23°C° 0 mm 5 mps 744 mmHg 74%
    19:00 +22°C° 0 mm 5 mps 744 mmHg 75%
    20:00 +21°C° 0 mm 5 mps 744 mmHg 77%
    21:00 +20°C° 0 mm 5 mps 744 mmHg 79%
    22:00 +19°C° 0 mm 4 mps 744 mmHg 82%
    23:00 +19°C° 0 mm 4 mps 744 mmHg 85%

    29 May, Wednesday

    Time Temperature Precipitation Wind Pressure Humidity
    00:00 +18°C° 0 mm 4 mps 744 mmHg 88%
    01:00 +18°C° 0 mm 4 mps 744 mmHg 91%
    02:00 +18°C° 0 mm 4 mps 744 mmHg 94%
    03:00 +18°C° 0 mm 4 mps 744 mmHg 92%
    04:00 +17°C° 0 mm 5 mps 744 mmHg 89%
    05:00 +17°C° 0 mm 5 mps 744 mmHg 87%
    06:00 +19°C° 0 mm 6 mps 744 mmHg 82%
    07:00 +20°C° 0 mm 7 mps 744 mmHg 78%
    08:00 +21°C° 0 mm 8 mps 744 mmHg 73%
    09:00 +22°C° 0 mm 8 mps 744 mmHg 71%
    10:00 +23°C° 0 mm 8 mps 744 mmHg 69%
    11:00 +24°C° 0 mm 7 mps 744 mmHg 67%
    12:00 +26°C° 0 mm 7 mps 744 mmHg 66%
    13:00 +26°C° 0 mm 7 mps 744 mmHg 65%
    14:00 +27°C° 0 mm 7 mps 744 mmHg 64%
    15:00 +27°C° 0.1 mm 7 mps 744 mmHg 67%
    16:00 +26°C° 0.1 mm 6 mps 743 mmHg 70%
    17:00 +26°C° 0.1 mm 6 mps 743 mmHg 72%
    18:00 +23°C° 1.6 mm 5 mps 744 mmHg 77%
    19:00 +22°C° 1.6 mm 5 mps 744 mmHg 82%
    20:00 +20°C° 1.6 mm 5 mps 744 mmHg 87%
    21:00 +20°C° 0.1 mm 4 mps 744 mmHg 89%
    22:00 +19°C° 0.1 mm 3 mps 745 mmHg 91%
    23:00 +18°C° 0.1 mm 2 mps 745 mmHg 93%

    30 May, Thursday

    Time Temperature Precipitation Wind Pressure Humidity
    00:00 +18°C° 0 mm 2 mps 745 mmHg 94%
    01:00 +18°C° 0 mm 2 mps 745 mmHg 95%
    02:00 +17°C° 0 mm 2 mps 745 mmHg 96%
    03:00 +17°C° 0.1 mm 3 mps 746 mmHg 95%
    04:00 +17°C° 0.1 mm 4 mps 746 mmHg 95%
    05:00 +15°C° 0.1 mm 4 mps 747 mmHg 95%
    06:00 +15°C° 0 mm 5 mps 747 mmHg 92%
    07:00 +15°C° 0 mm 5 mps 748 mmHg 90%
    08:00 +16°C° 0 mm 5 mps 748 mmHg 88%
    09:00 +16°C° 0 mm 5 mps 748 mmHg 85%
    10:00 +16°C° 0 mm 5 mps 749 mmHg 83%
    11:00 +17°C° 0 mm 5 mps 749 mmHg 80%
    12:00 +19°C° 0 mm 4 mps 749 mmHg 76%
    13:00 +20°C° 0 mm 4 mps 749 mmHg 72%
    14:00 +21°C° 0 mm 4 mps 749 mmHg 69%
    15:00 +20°C° 0 mm 4 mps 749 mmHg 68%
    16:00 +20°C° 0 mm 4 mps 749 mmHg 68%
    17:00 +20°C° 0 mm 4 mps 749 mmHg 67%
    18:00 +18°C° 0 mm 3 mps 749 mmHg 70%
    19:00 +17°C° 0 mm 3 mps 749 mmHg 72%
    20:00 +14°C° 0 mm 3 mps 749 mmHg 75%
    21:00 +14°C° 0 mm 3 mps 749 mmHg 73%
    22:00 +13°C° 0 mm 3 mps 749 mmHg 70%
    23:00 +12°C° 0 mm 3 mps 749 mmHg 68%
    Show more